User: anonymous   Login
Location: Unspecified
(22.6800°N, 112.2000°E)
Time: 18:04:37
(UTC+08:00)
Language:

SL-16 DEB - Orbit

View from above orbital plane
View from above orbital plane
View from above satellite
View from above satellite

Ground track
Ground track

The orbit data is extracted from the following two-line orbital elements,

1 39710U 92093KA  21330.35104469  .00000476  00000-0  29264-3 0  9997
2 39710  71.2190   6.9435 0086435 224.0887 135.3321 14.08690225392836
Epoch (UTC): 26 November 2021 08:25:30
Eccentricity: 0.0086435
inclination: 71.2190°
perigee height: 801 km
apogee height: 926 km
right ascension of ascending node: 6.9435°
argument of perigee: 224.0887°
revolutions per day: 14.08690225
mean anomaly at epoch: 135.3321°
orbit number at epoch: 39283

The dashed part of the orbit path shows where the satellite is in the earth's shadow,  

DLR